Temp_Advection
nan nan nan nan nan nan nan nan nan nan nan nan nan nan nan nan nan nan nan nan nan nan nan nan nan nan nan nan nan nan nan nan nan nan nan nan nan nan nan nan nan nan nan nan nan nan nan nan nan nan nan nan nan nan nan nan nan nan nan nan nan nan nan nan nan nan nan nan nan
nan -0 -0 0 1 1 1 1 1 0 1 1 0 0 0 -0 -0 -0 -0 -0 -0 -0 0 0 1 1 1 1 1 0 0 0 0 0 0 0 0 0 0 0 0 0 0 0 0 0 0 0 0 0 0 0 0 0 0 -0 -0 -0 0 0 0 0 0 0 0 0 0 1 nan
nan 0 0 0 0 1 1 1 0 1 1 1 0 0 -0 -0 -0 -0 -0 -0 -0 0 0 0 1 1 1 1 0 0 0 0 0 0 0 0 0 0 0 0 0 0 0 0 0 0 0 0 0 0 0 0 0 0 0 -0 -0 -0 -0 0 0 0 0 0 0 0 0 0 nan
nan 1 0 0 0 1 1 1 1 1 1 1 0 -0 -0 -0 -0 -0 -0 -0 -0 0 0 0 1 1 1 0 0 0 0 0 0 0 0 0 0 0 0 0 0 0 0 1 0 1 0 0 0 0 0 0 0 0 0 0 -0 -0 -0 0 0 0 0 0 0 0 0 0 nan
nan 1 0 0 0 1 1 1 1 1 1 0 -0 -0 -0 -0 -0 -0 -0 -0 -0 -0 0 1 1 1 1 0 0 0 0 0 0 0 0 0 0 0 0 0 0 0 0 1 1 1 1 0 0 0 0 0 0 0 0 0 0 0 0 0 0 0 0 0 0 0 0 0 nan
nan 1 0 0 0 1 1 1 1 1 1 -0 -0 -1 -0 -0 -0 -0 -0 -0 -0 0 0 1 1 1 0 0 0 0 0 0 0 0 1 1 0 0 0 0 0 0 0 0 1 1 1 1 0 0 0 0 0 0 0 0 0 0 0 0 0 0 0 -0 0 0 0 0 nan
nan 1 0 -0 0 1 1 1 1 1 0 -1 -1 -0 -0 -0 -0 -0 -0 -0 -0 0 1 1 0 0 0 0 0 0 0 0 1 1 1 1 0 0 0 0 0 0 0 0 0 1 1 1 0 0 0 0 0 0 0 0 0 0 0 0 0 0 0 0 -0 0 0 0 nan
nan 0 0 0 0 1 1 1 1 0 -1 -1 -1 -0 0 0 0 -0 -0 -0 0 0 1 1 0 0 0 0 0 0 0 0 1 1 1 1 1 0 0 0 0 0 0 0 1 1 1 0 0 0 0 0 0 0 0 0 0 0 0 0 0 0 0 0 0 -0 -0 0 nan
nan 0 0 0 1 1 1 1 1 -0 -1 -1 -0 0 0 0 0 0 -0 -0 0 0 1 1 0 0 0 0 0 0 0 1 1 1 1 1 1 0 0 1 1 0 1 1 1 1 1 0 0 0 0 0 0 0 0 0 0 0 0 0 0 1 1 0 0 0 -0 -0 nan
nan 0 0 1 1 1 1 1 0 -0 -1 -0 0 1 0 0 0 0 -0 0 0 1 1 1 0 0 0 0 0 0 0 1 1 1 1 1 1 0 0 0 1 1 1 1 1 1 1 0 0 0 0 0 0 0 0 0 0 0 0 0 0 0 1 1 1 0 0 -0 nan
nan 1 1 1 1 1 1 1 0 -0 -1 -0 0 1 0 0 0 0 0 0 1 1 1 0 0 0 0 -0 0 0 0 1 1 1 1 1 1 1 0 0 1 1 1 0 0 1 1 1 0 0 0 0 0 0 0 0 0 0 0 0 0 0 1 1 1 1 0 0 nan
nan 0 1 1 1 1 1 1 0 -0 -0 0 0 0 0 0 0 0 0 0 1 1 0 0 0 0 -0 -0 0 0 0 1 1 1 1 1 1 1 0 0 1 1 1 0 0 0 1 1 0 0 0 0 0 0 0 0 0 0 0 0 0 0 0 1 1 1 1 0 nan
nan 0 0 1 1 1 1 1 0 0 0 0 0 0 0 0 0 0 0 0 1 0 0 0 0 -0 -0 0 0 0 1 1 1 1 1 1 1 1 1 0 1 1 1 0 0 0 0 0 0 0 0 0 0 0 0 0 0 -0 0 0 0 0 0 0 0 0 0 0 nan
nan -0 0 1 1 1 1 1 0 0 0 0 0 0 0 0 0 0 0 0 1 0 0 -0 -0 -0 -0 0 0 0 1 1 1 1 1 1 1 1 1 1 1 1 1 1 0 0 0 0 0 0 0 0 1 1 1 0 0 0 0 0 0 0 0 0 0 0 0 0 nan
nan -0 0 1 1 1 1 1 0 0 0 0 0 0 0 0 0 0 0 1 0 0 -0 -0 -0 -0 -0 0 0 1 1 1 1 1 1 1 1 1 1 1 1 1 1 1 1 1 0 0 0 0 0 0 0 1 1 1 0 0 0 0 0 0 0 0 1 0 0 0 nan
nan 0 0 1 1 1 1 0 0 0 0 0 0 0 0 0 0 0 0 0 0 -0 -0 -0 -0 -0 0 0 0 1 1 1 1 1 1 1 1 1 1 1 1 1 1 1 1 1 0 0 0 0 0 0 0 1 1 1 1 0 0 0 0 0 0 1 1 1 0 0 nan
nan -0 -0 0 1 1 1 1 1 1 0 0 0 0 0 0 0 0 1 0 0 -0 -0 -0 -0 0 0 1 1 1 1 1 1 1 1 1 1 1 1 1 1 1 0 1 1 1 1 0 0 0 0 0 0 0 1 1 1 1 0 0 0 0 0 0 1 1 0 0 nan
nan -1 -1 -0 1 1 1 1 1 1 1 1 1 0 0 0 0 1 1 0 -0 -0 -0 -0 0 0 0 1 1 1 1 1 1 1 1 1 1 1 1 1 1 1 0 0 0 1 1 1 0 0 0 0 0 0 0 1 1 1 1 0 0 0 0 0 1 1 1 0 nan
nan -1 -1 -0 1 1 1 1 1 1 1 1 0 0 0 0 0 1 0 0 -0 -0 0 0 0 1 1 1 1 1 1 1 1 1 1 1 1 1 1 1 1 1 0 0 0 1 1 1 1 0 0 0 0 -0 0 0 0 0 0 0 0 0 0 0 1 1 1 1 nan
nan -1 -1 0 1 2 2 1 1 1 1 1 0 0 0 0 1 0 0 0 0 0 0 0 1 1 1 1 1 1 0 0 1 1 1 1 1 1 1 1 1 1 0 0 0 0 1 1 1 1 1 0 0 0 0 -0 -0 0 0 0 0 0 0 0 0 0 1 1 nan
nan -0 0 1 2 2 2 1 1 1 1 0 -0 0 0 0 0 0 0 0 0 0 1 1 1 1 1 0 0 0 0 0 0 1 1 0 1 1 1 1 1 1 0 0 0 0 1 1 1 1 1 1 1 1 0 0 -0 -0 -0 -0 0 0 0 0 0 0 0 0 nan
nan 0 1 1 2 2 2 1 1 1 0 -0 -0 0 0 0 0 0 0 0 1 1 1 1 1 1 0 0 0 0 0 0 0 1 1 0 0 1 1 1 1 1 0 0 0 0 1 1 1 1 1 1 1 1 1 0 0 0 -0 -0 -0 -0 0 0 0 0 0 0 nan
nan 0 1 1 2 2 1 1 1 0 -0 -0 0 0 0 0 0 0 1 1 1 1 1 1 0 0 0 0 0 0 0 0 0 1 1 1 1 1 1 0 0 0 0 0 0 0 1 1 1 1 1 1 1 1 0 0 0 0 0 0 0 -0 -0 0 0 0 0 0 nan
nan 1 1 1 1 1 1 0 0 0 0 0 0 0 0 0 1 1 1 1 1 1 1 0 0 0 0 0 0 0 0 0 0 0 0 1 1 1 0 0 0 0 0 0 0 1 1 1 1 1 1 1 1 1 1 0 0 0 0 0 -0 -0 -0 -0 -0 -0 0 0 nan
nan 1 1 1 1 1 0 0 0 0 0 0 0 0 0 1 1 1 1 1 1 1 1 0 0 0 0 0 0 0 0 0 0 0 0 0 0 0 0 0 -0 -0 0 0 1 1 1 1 1 1 1 1 1 1 1 0 0 0 0 -0 -0 -1 -1 -1 -1 -1 -1 -0 nan
nan 1 1 1 1 1 0 0 1 1 0 0 0 0 1 1 1 1 1 1 1 1 0 0 0 0 0 0 0 0 0 0 0 0 0 0 0 0 0 0 -0 -0 0 0 1 1 1 1 1 1 0 0 0 0 0 0 0 0 0 0 -0 -1 -1 -1 -2 -2 -2 -1 nan
nan 0 0 0 1 0 0 1 1 1 0 0 0 1 1 1 1 1 1 1 1 0 0 0 0 0 0 0 0 0 0 0 0 0 0 0 0 0 0 0 -0 -0 0 0 1 1 1 1 1 1 0 0 -0 -0 -0 0 0 0 0 0 0 -0 -1 -1 -1 -1 -2 -2 nan
nan 0 0 1 0 1 1 1 1 1 0 0 1 1 1 1 1 1 1 1 0 0 0 0 0 0 0 0 0 0 0 0 0 0 0 0 0 0 0 0 0 0 0 0 0 1 1 1 1 1 1 1 0 -0 -0 -0 0 0 0 1 0 0 -0 -1 -1 -1 -1 -1 nan
nan 0 1 1 1 1 1 1 1 1 0 1 1 1 1 1 1 1 1 0 0 0 0 0 0 0 0 0 0 0 0 0 0 0 0 0 0 0 0 1 1 0 0 0 1 1 1 1 1 1 1 1 1 1 0 0 0 1 1 1 1 1 0 0 -0 -0 -1 -1 nan
nan 1 1 1 1 1 1 1 1 1 1 1 1 1 1 1 1 1 0 0 0 0 0 0 0 0 0 0 0 0 0 0 0 0 0 0 0 0 1 1 1 0 0 1 1 1 1 1 1 1 1 1 1 1 1 1 1 1 1 1 1 1 1 1 1 1 0 0 nan
nan 1 1 1 1 1 1 1 1 1 1 1 1 1 1 1 1 1 0 0 0 0 0 0 0 0 0 0 0 0 0 0 0 0 0 0 0 1 0 0 0 0 0 1 1 1 1 1 1 1 1 1 1 1 1 1 1 1 1 1 1 1 1 1 1 1 1 1 nan
nan 1 1 1 1 1 1 1 0 0 1 1 1 1 1 1 1 0 0 0 0 0 0 0 0 0 0 0 0 0 0 0 0 0 0 0 0 0 0 0 0 0 0 1 1 1 1 1 1 1 1 1 1 1 1 1 1 1 1 1 0 0 1 1 0 0 1 1 nan
nan 1 1 1 0 0 0 0 0 0 1 1 1 1 1 1 0 0 0 0 0 0 0 0 0 0 0 0 0 0 0 0 0 0 0 0 0 0 0 -0 0 0 1 1 1 1 1 1 1 1 1 1 1 1 1 1 1 1 1 0 0 0 0 0 0 0 0 1 nan
nan 1 1 0 0 0 0 0 1 1 1 1 1 1 1 0 0 0 0 0 0 0 0 0 0 0 0 0 0 0 0 0 0 0 0 0 0 -0 -0 -0 -0 0 1 1 0 0 1 1 1 1 1 1 1 1 1 1 1 1 1 0 0 0 0 0 0 0 0 1 nan
nan 0 0 0 0 0 0 1 1 1 1 1 1 1 0 0 0 0 0 0 0 0 0 0 0 0 0 0 0 0 1 0 0 0 0 0 0 0 -0 -0 0 0 0 0 0 -0 0 0 1 1 1 1 1 1 1 1 1 1 0 0 0 -0 0 0 0 0 0 0 nan
nan 0 0 0 0 1 1 1 1 1 1 1 0 0 0 0 0 0 0 0 0 0 0 0 0 0 0 0 0 0 0 0 0 1 1 1 1 0 -0 -0 0 0 1 0 -0 -0 -0 0 0 0 1 1 1 1 1 1 1 1 0 0 -0 -0 -0 0 0 0 0 0 nan
nan 0 0 0 1 1 1 1 1 0 0 0 0 0 0 0 0 0 0 0 0 -0 0 0 0 0 0 0 0 0 0 0 0 0 1 1 1 1 0 0 0 1 1 1 1 0 -0 0 0 0 1 1 1 1 1 1 1 1 1 0 -0 -0 -0 0 0 0 0 0 nan
nan 0 0 0 0 0 0 0 0 0 0 0 0 0 0 0 0 0 0 0 0 0 0 0 0 0 0 0 0 -0 0 0 0 0 0 1 1 1 1 -0 -0 0 1 1 1 1 0 0 1 1 1 1 1 1 1 1 1 1 1 0 0 -0 -0 0 0 0 0 0 nan
nan 0 0 0 0 0 0 0 0 0 0 0 0 0 0 0 0 0 0 0 0 0 0 0 0 0 0 0 -0 -0 -0 0 1 1 0 0 1 1 1 -0 -1 -0 0 1 1 1 1 1 1 1 1 1 1 1 1 1 1 1 1 1 0 0 0 0 0 0 0 0 nan
nan 0 0 0 0 0 0 0 0 0 0 0 0 0 -0 -0 -0 0 0 0 0 0 0 0 0 0 0 0 0 -0 0 1 1 1 1 0 0 1 1 0 -1 -1 -0 0 1 1 1 1 1 1 1 1 1 1 1 1 1 1 1 0 0 0 0 0 0 -0 -0 0 nan
nan nan nan nan nan nan nan nan nan nan nan nan nan nan nan nan nan nan nan nan nan nan nan nan nan nan nan nan nan nan nan nan nan nan nan nan nan nan nan nan nan nan nan nan nan nan nan nan nan nan nan nan nan nan nan nan nan nan nan nan nan nan nan nan nan nan nan nan nan
Wind_Speed
33 35 36 35 33 31 30 29 30 30 30 29 28 28 28 28 27 26 26 26 26 25 25 25 25 25 24 23 22 21 21 20 19 19 18 17 18 18 18 18 18 18 18 18 18 18 18 18 19 19 19 19 20 21 23 24 25 25 26 27 27 27 27 27 26 25 24 24 23
34 35 35 35 33 31 30 30 31 31 30 29 29 28 28 27 26 26 26 25 25 25 25 25 25 25 24 23 23 22 22 21 20 19 18 18 18 18 18 18 18 18 18 18 18 18 18 19 19 19 19 20 21 22 23 25 26 26 27 27 27 27 27 27 26 25 24 24 23
35 35 35 35 33 32 31 31 31 31 30 29 29 28 27 27 26 26 25 25 25 25 25 25 25 25 24 24 23 23 22 21 20 20 19 19 19 19 19 19 19 18 18 18 18 18 19 19 19 19 20 21 22 23 24 25 26 27 27 27 28 27 27 27 26 25 25 24 24
35 35 35 35 34 33 32 32 31 31 30 29 29 28 27 26 26 26 25 25 25 25 25 25 25 25 24 24 24 23 23 22 21 20 19 19 19 19 19 19 19 19 18 18 18 19 19 19 19 20 20 21 22 23 24 25 26 27 28 28 28 28 27 27 26 26 25 24 24
35 35 35 35 34 33 32 31 31 30 30 29 29 28 27 27 26 26 25 25 25 25 25 25 25 25 25 25 24 24 23 22 21 21 20 20 20 20 20 19 19 19 19 19 19 19 19 19 20 20 21 22 23 24 24 25 26 27 28 28 28 28 28 27 27 26 25 25 24
35 35 35 35 34 33 32 31 30 30 29 29 29 28 27 27 27 26 26 25 25 25 25 25 25 25 25 25 25 24 23 23 22 21 20 20 20 20 20 20 19 19 19 19 19 19 19 20 20 21 22 23 24 24 25 26 27 27 28 28 28 28 28 27 27 26 26 25 25
35 35 35 35 34 33 31 30 30 30 30 30 29 29 28 27 27 27 26 26 26 26 26 26 26 26 26 25 25 24 24 23 22 21 21 21 21 20 20 20 20 19 19 19 19 19 20 20 21 22 22 23 24 25 26 27 27 28 28 28 28 28 28 27 27 26 26 25 25
34 34 34 34 33 32 30 30 30 30 30 31 30 29 28 27 27 27 27 26 26 26 26 26 26 26 26 25 25 24 24 23 22 22 21 21 21 21 20 20 20 20 20 20 20 20 20 21 21 22 23 24 25 26 27 28 28 29 29 28 28 28 27 27 27 27 26 26 26
33 33 33 33 32 31 30 30 30 31 31 31 30 29 28 27 27 27 27 27 27 27 26 26 26 26 26 25 25 24 24 23 22 22 22 21 21 21 21 20 20 20 20 20 20 20 21 22 22 23 24 25 26 27 28 28 29 29 29 29 28 28 27 27 27 27 27 27 26
32 32 32 32 31 31 30 30 31 31 31 31 29 28 27 27 27 27 27 27 27 27 26 26 26 26 25 25 25 24 24 23 22 22 22 22 21 21 21 21 20 20 20 20 21 21 21 22 23 24 24 25 26 27 28 29 29 29 30 29 29 28 27 27 27 27 27 27 27
31 31 31 31 31 31 31 31 31 31 31 30 29 28 27 27 27 27 27 28 27 27 26 26 26 26 25 25 25 24 24 23 23 22 22 22 22 21 21 21 20 20 21 21 21 22 22 23 24 24 25 26 27 28 29 29 30 30 30 30 29 28 28 27 27 26 27 27 27
30 30 30 30 30 31 31 31 32 32 31 30 29 28 28 27 27 28 28 28 27 27 26 26 26 26 25 25 25 24 24 23 23 22 22 22 22 21 21 21 21 21 21 22 22 22 23 23 24 25 26 27 28 29 29 30 30 30 30 30 29 29 28 28 27 27 27 27 27
30 30 30 30 30 31 31 31 32 32 31 30 29 28 28 28 28 28 28 28 27 27 27 26 26 26 25 25 24 24 24 23 23 22 22 22 22 21 21 21 21 21 21 22 23 23 24 24 25 25 26 27 28 29 30 30 31 31 31 30 30 29 29 28 28 27 27 27 27
29 29 29 30 30 30 31 31 32 31 30 29 29 28 28 28 28 29 29 28 28 27 27 27 26 26 25 25 24 24 24 23 23 22 22 22 22 21 21 21 21 21 22 23 23 24 25 25 26 26 27 28 29 29 30 31 31 31 31 30 30 29 29 28 28 27 27 27 27
29 29 29 30 30 30 31 31 31 31 30 29 29 29 29 29 29 29 29 28 28 28 27 27 26 25 25 24 24 24 23 23 23 22 22 22 22 22 22 22 22 22 22 23 24 25 25 26 27 27 28 29 29 30 30 31 31 31 31 30 30 29 29 28 28 27 27 28 28
29 30 30 30 30 30 31 31 31 30 30 29 29 29 29 30 30 30 29 29 28 28 27 26 26 25 25 24 24 23 23 23 22 22 22 22 22 22 22 22 22 23 23 24 24 25 26 27 28 29 29 30 30 31 31 31 31 31 31 30 30 29 29 28 28 27 28 28 28
30 30 30 30 30 30 30 30 30 30 30 30 30 30 30 30 30 30 29 29 28 28 27 26 25 25 24 24 24 23 23 22 22 22 21 22 22 22 22 22 23 23 24 25 25 26 27 28 29 30 30 31 31 32 32 32 31 31 31 30 30 29 29 28 28 28 28 28 28
30 31 31 30 30 30 30 30 30 30 30 30 30 30 30 31 30 29 29 28 28 27 26 25 24 24 24 23 23 23 22 22 21 21 21 22 22 22 22 23 23 24 25 26 26 27 28 28 29 30 31 32 33 33 33 32 32 31 31 31 30 30 29 29 28 28 28 28 28
30 31 31 30 30 29 29 29 29 29 29 30 30 30 30 30 29 28 28 27 27 26 25 24 24 24 23 23 22 22 22 21 21 21 22 22 22 22 23 23 24 25 26 27 27 28 28 29 30 31 32 33 33 34 34 33 33 32 31 31 30 30 29 29 28 28 28 28 28
30 30 30 29 29 28 28 28 28 29 29 29 30 30 30 29 28 28 27 27 26 25 25 24 24 23 23 22 22 21 21 21 21 21 22 22 22 23 23 24 24 25 26 27 28 29 29 30 31 31 32 33 34 34 34 34 33 33 32 31 31 30 30 29 29 29 28 28 28
29 30 29 28 28 28 27 27 28 28 29 29 30 29 29 28 27 27 26 26 25 25 24 24 23 23 22 21 21 21 21 21 21 22 22 23 23 23 24 24 25 26 27 28 29 30 30 31 31 32 33 33 34 34 34 34 33 33 32 32 31 31 30 29 29 29 29 28 28
28 28 28 28 27 27 27 27 27 28 28 29 29 28 28 27 26 26 26 25 25 24 24 23 22 22 21 21 21 21 21 21 22 22 22 23 23 24 25 25 26 27 28 29 30 31 31 31 32 32 33 34 34 34 34 34 33 33 33 32 32 31 30 30 29 29 29 29 29
27 27 27 27 26 26 26 26 27 27 28 28 28 28 27 26 26 26 25 25 24 24 23 22 22 21 21 20 20 21 21 22 22 22 23 23 24 25 25 26 27 28 29 30 31 32 32 32 32 33 33 34 34 34 34 33 33 33 32 32 32 31 31 30 30 29 29 29 29
26 26 26 25 25 25 25 26 26 27 28 28 27 27 26 26 25 25 25 24 24 23 22 22 21 21 20 20 20 21 21 22 22 23 23 24 25 25 26 27 29 29 30 31 32 32 33 33 33 33 34 34 34 34 34 33 33 33 32 32 32 32 32 31 31 30 30 30 30
25 25 24 24 24 24 25 26 26 27 27 27 26 26 25 25 25 24 24 23 23 22 22 21 21 20 20 20 21 21 22 22 23 23 24 24 25 26 27 29 30 31 32 32 33 33 33 33 34 34 34 34 34 34 34 33 33 33 33 32 32 32 32 32 32 32 31 31 31
25 24 24 23 23 24 24 25 25 26 26 26 26 25 25 24 24 24 23 23 22 22 21 21 20 20 20 21 21 21 22 22 23 23 24 25 26 27 29 30 31 32 33 33 34 34 34 34 34 34 35 35 34 34 34 33 33 33 33 32 32 32 32 32 32 32 32 32 32
24 24 24 23 23 23 24 24 24 25 25 25 25 24 24 24 23 23 22 22 21 21 20 20 20 20 21 21 21 22 22 22 23 24 25 26 27 28 30 31 32 33 34 34 34 34 34 34 34 34 34 34 34 34 33 33 33 32 32 32 32 31 31 31 32 32 32 32 32
24 24 24 23 23 23 23 23 23 24 24 24 24 24 23 23 23 22 22 21 21 20 20 20 20 20 21 21 21 22 22 23 24 25 26 27 28 30 31 32 33 34 34 35 35 35 34 34 33 33 33 33 33 33 33 32 32 32 31 31 30 30 30 30 31 31 31 31 31
24 24 24 23 23 22 22 22 23 23 24 24 23 23 23 22 22 21 21 20 20 20 20 20 20 20 21 21 21 22 23 24 25 26 28 29 30 31 32 33 34 34 35 35 35 35 35 34 33 33 32 31 31 32 32 32 32 31 31 30 30 30 30 30 30 30 30 30 31
23 23 23 23 22 22 21 22 22 23 23 23 23 22 22 21 21 20 20 20 20 20 20 20 20 20 21 21 22 23 24 25 27 28 29 31 32 33 33 34 34 35 35 35 35 35 35 34 33 32 31 31 31 31 31 31 31 31 31 31 30 30 30 30 30 30 30 30 30
21 21 21 21 21 21 21 21 22 22 22 22 22 21 21 20 20 19 19 19 19 19 19 20 20 20 21 22 23 24 26 27 29 30 31 32 33 34 34 35 35 36 36 36 36 36 35 34 33 32 31 30 30 30 31 31 31 31 31 31 31 31 31 30 30 30 30 30 30
19 19 20 20 20 20 20 20 21 21 21 21 20 20 19 19 19 18 18 18 18 19 19 20 20 21 22 23 25 26 28 29 30 31 32 33 34 35 35 36 36 37 37 37 37 36 35 34 33 32 31 30 30 30 31 31 32 32 32 32 32 32 31 31 31 31 31 31 30
17 17 18 18 19 19 19 19 19 19 19 19 18 18 18 17 17 17 17 18 18 18 19 20 21 22 24 25 27 28 29 31 32 33 33 34 35 35 36 37 37 38 38 38 37 37 36 35 33 32 31 30 30 30 31 31 32 32 32 32 32 32 31 31 31 31 31 31 31
15 15 16 16 17 17 17 17 17 17 17 16 16 16 16 16 16 16 17 17 18 19 20 21 22 24 25 27 28 29 31 32 33 33 34 35 36 36 37 38 39 39 39 38 38 37 36 34 33 32 31 30 30 31 31 32 32 32 32 32 32 32 31 31 31 31 31 31 31
12 13 13 14 14 14 14 14 14 14 14 14 14 14 14 15 15 16 16 17 18 20 21 23 24 26 27 28 29 30 31 32 33 34 35 36 37 37 38 39 40 39 39 38 37 36 35 34 33 31 31 30 30 31 31 32 32 32 32 32 32 32 31 31 31 31 31 31 31
10 10 11 11 11 11 11 11 11 11 12 12 12 13 13 14 15 16 17 18 20 21 23 24 26 27 29 30 31 32 32 33 34 35 36 37 37 38 39 40 40 39 38 37 37 36 35 34 33 31 30 30 30 31 31 31 32 32 32 32 32 32 31 31 31 31 31 31 31
8 8 8 8 8 8 8 8 9 9 10 10 11 12 13 14 15 17 18 20 21 23 25 26 28 29 30 31 32 33 34 34 35 36 37 38 38 39 39 39 39 39 38 37 36 35 34 33 32 31 30 30 30 31 31 31 31 31 31 31 31 31 31 31 31 31 31 31 32
6 6 6 6 6 6 6 6 7 8 9 10 11 13 14 15 17 18 20 22 23 25 26 28 29 30 31 32 33 34 35 36 37 38 38 39 39 39 39 39 39 39 38 37 36 35 34 33 32 30 30 30 30 30 31 31 31 31 31 31 31 31 31 31 31 31 31 31 32
6 5 5 5 5 5 5 6 7 8 10 11 12 14 15 17 19 20 22 24 25 26 28 29 30 31 32 33 34 35 36 37 38 38 39 39 39 39 39 39 39 39 38 37 36 35 34 32 31 30 30 29 30 30 31 31 31 31 31 32 32 32 32 31 31 31 31 31 31
6 5 4 4 4 4 5 7 8 9 11 12 14 15 17 19 21 22 24 25 26 28 29 30 31 32 33 34 35 36 37 38 38 38 39 39 39 39 39 39 39 39 39 37 36 35 34 32 31 30 29 29 30 30 30 31 31 31 32 32 32 32 32 32 31 30 30 31 30
4 4 3 3 4 5 7 8 10 11 13 14 16 17 19 21 23 24 25 26 28 29 30 31 32 33 34 35 36 37 37 38 38 39 39 39 39 39 39 39 39 39 39 38 36 35 34 33 31 30 29 29 30 30 31 31 32 32 33 32 32 32 31 31 30 30 29 29 30
Wind_Direction
220 222 225 227 227 226 224 224 226 228 230 231 231 233 235 237 239 240 241 240 240 238 237 237 236 237 238 239 242 246 251 255 260 266 273 280 287 292 295 295 295 294 293 294 295 297 298 299 300 302 303 305 306 308 310 312 314 316 317 318 318 317 317 317 316 316 315 314 313
222 224 227 228 227 226 225 225 227 229 230 232 233 235 237 239 240 241 242 241 240 239 238 237 236 236 237 239 243 247 251 256 261 266 273 280 287 292 294 295 294 292 292 292 293 295 296 298 299 300 302 304 306 308 310 312 314 316 317 317 317 317 316 316 315 314 313 312 311
223 225 227 228 227 226 225 226 227 229 231 232 234 236 238 240 241 242 242 241 240 239 237 236 236 236 237 239 243 247 252 257 261 267 273 280 286 291 294 294 292 291 290 291 292 294 295 297 298 300 301 303 306 308 311 313 315 316 316 316 316 316 315 314 314 313 312 311 310
224 226 227 228 228 227 227 227 229 230 232 234 235 237 239 240 242 242 241 240 239 237 236 235 235 236 237 240 243 248 253 257 262 267 273 280 286 290 292 292 291 290 289 290 291 293 294 296 297 299 301 303 305 308 310 312 313 314 315 315 315 314 314 313 313 312 311 311 310
225 226 228 229 229 229 229 230 231 232 234 236 237 238 240 241 241 241 240 238 236 235 234 234 235 236 238 241 244 249 253 258 262 267 273 280 285 289 291 291 290 288 288 289 291 292 293 295 296 298 300 302 304 307 309 310 312 313 313 314 314 313 313 313 312 312 311 310 310
225 226 228 230 230 230 231 231 232 234 236 237 238 239 240 241 241 240 238 236 235 234 233 233 234 236 238 241 245 249 254 258 263 268 274 280 285 288 290 289 288 288 288 289 290 292 293 294 295 297 299 302 304 306 308 309 310 311 312 313 313 313 312 312 311 311 310 310 309
227 228 229 231 232 232 232 232 233 235 237 238 239 240 241 241 241 240 238 236 234 233 232 233 234 236 238 242 246 250 254 259 263 268 274 279 284 287 288 288 287 287 287 289 290 291 293 293 295 297 299 302 304 306 308 309 310 311 311 312 312 312 311 310 310 309 309 308 307
229 230 231 233 234 234 234 234 234 236 237 239 240 241 241 242 241 240 238 236 233 232 232 233 234 237 240 243 247 251 255 259 264 269 274 279 283 286 287 287 286 286 287 288 290 291 292 293 295 297 299 302 304 306 307 308 309 310 311 311 311 310 310 309 308 308 307 306 306
231 232 233 235 235 236 235 235 236 237 239 240 241 241 242 242 241 239 237 235 233 233 233 234 235 238 241 244 248 252 256 260 265 270 275 279 283 285 286 286 286 286 286 288 289 290 292 293 295 297 299 302 304 305 307 308 309 309 310 310 310 309 309 308 307 306 306 306 305
234 235 236 236 237 237 236 236 237 238 240 241 242 242 242 241 240 238 236 234 234 233 233 234 236 239 242 245 249 253 257 261 266 271 275 279 282 284 285 285 285 285 286 287 289 290 291 293 295 298 300 302 304 305 306 307 308 309 309 309 309 309 308 307 306 305 305 304 304
238 238 238 238 238 238 237 237 238 239 241 242 242 242 241 240 238 236 235 234 233 233 233 235 237 239 242 246 250 254 258 262 267 271 275 279 281 283 284 285 285 285 286 287 288 290 292 294 296 298 301 303 304 305 306 307 307 308 308 309 308 308 307 306 305 304 303 303 303
240 240 240 240 239 239 238 238 239 240 241 242 242 241 240 239 237 235 233 233 232 232 233 235 237 240 243 247 251 256 260 264 268 272 276 279 281 282 284 284 284 285 285 287 288 290 292 294 297 299 301 303 304 305 306 306 307 307 308 308 307 307 306 305 304 303 302 302 302
242 242 242 241 240 240 239 239 240 241 242 242 242 241 240 238 236 234 232 232 231 232 233 235 237 241 244 248 253 257 261 265 269 273 276 278 280 282 283 284 284 284 285 287 289 291 293 295 297 299 301 302 304 305 305 306 306 306 307 307 306 306 305 304 304 303 302 301 301
244 244 244 242 241 240 240 240 241 241 242 242 241 240 239 237 235 233 232 231 231 232 233 235 238 242 246 250 255 259 263 266 270 273 276 279 280 282 282 283 284 284 285 287 289 291 293 295 298 299 301 302 303 304 304 305 305 305 305 305 305 304 304 304 303 302 301 301 301
245 245 244 243 242 241 240 240 241 241 242 241 241 240 238 236 234 233 231 230 231 232 234 236 239 243 248 252 256 260 264 267 270 273 276 279 281 282 282 283 283 284 285 287 289 291 294 296 298 300 301 302 303 303 304 304 304 304 304 304 304 303 303 302 301 301 300 300 299
244 245 244 243 242 241 241 241 241 242 242 241 241 240 238 236 234 233 231 230 231 233 235 238 242 246 250 254 258 262 265 268 271 274 277 279 281 282 282 283 283 284 286 287 290 292 295 297 298 300 301 302 302 302 303 303 303 303 303 303 302 302 301 301 300 300 299 299 298
244 244 244 244 243 242 241 241 242 242 242 241 240 239 237 236 235 233 232 231 232 234 237 240 244 248 252 256 260 263 266 269 272 275 278 280 281 281 282 282 283 285 286 288 290 293 295 298 299 300 301 301 302 302 302 302 302 302 302 301 301 301 300 300 299 299 298 298 298
243 244 245 244 244 243 242 242 243 243 242 242 240 239 238 237 235 234 233 233 234 236 239 243 247 250 254 257 260 263 266 270 273 276 278 280 281 281 282 283 284 285 287 289 291 294 296 298 299 300 301 301 302 302 302 302 302 301 301 301 300 300 299 299 299 298 298 297 298
243 244 245 245 245 244 243 243 243 243 243 242 241 239 238 237 236 234 234 234 236 239 242 245 249 252 255 258 261 264 268 271 274 277 279 280 280 281 282 283 284 286 288 290 292 295 297 298 299 300 300 301 301 302 302 302 302 301 301 300 299 299 299 298 298 298 297 297 297
244 245 246 247 246 245 244 243 243 243 242 241 240 240 239 238 236 235 234 235 238 241 244 247 250 253 256 259 262 266 269 273 276 278 279 280 280 281 282 283 285 286 288 290 293 295 297 298 299 299 300 300 300 301 301 301 301 301 300 300 299 299 298 298 297 297 297 297 296
245 247 248 248 247 245 244 243 243 242 241 240 240 240 239 237 236 235 235 237 239 242 245 248 251 255 258 261 264 268 271 274 276 278 279 280 281 282 283 284 285 287 289 291 294 296 297 298 299 299 299 299 299 300 300 300 300 300 300 299 299 298 298 297 297 297 297 296 296
246 247 248 248 246 245 244 243 242 241 240 240 241 240 238 236 235 235 236 238 240 243 247 250 253 256 259 263 266 270 273 276 278 279 280 281 282 283 284 285 286 288 290 292 294 296 298 298 299 299 299 299 299 299 299 299 299 299 298 298 298 297 297 297 297 297 296 296 296
246 247 247 247 246 245 244 243 242 241 241 241 240 239 237 235 235 235 236 238 241 244 248 251 254 258 261 265 269 272 275 277 279 280 281 282 283 284 285 287 288 290 291 293 295 297 298 299 298 298 298 298 298 298 298 298 298 298 297 297 297 297 296 296 296 296 297 297 297
246 247 247 247 246 245 244 243 242 242 241 241 239 238 236 235 235 236 237 240 243 246 249 253 256 260 264 268 271 274 276 278 280 281 282 283 284 285 287 288 290 291 293 294 296 297 298 298 298 298 298 298 298 298 298 297 297 297 297 297 296 296 296 297 297 297 297 298 297
247 247 247 247 246 245 244 244 243 242 242 241 239 238 236 235 236 237 239 241 244 248 251 255 259 263 266 270 273 276 278 279 281 282 284 285 286 288 289 290 291 293 294 295 297 298 298 298 298 298 298 298 298 298 298 297 297 297 297 297 297 298 298 299 299 300 300 300 299
246 247 247 247 246 246 245 245 244 243 242 241 239 238 237 236 237 239 241 244 247 250 253 257 261 266 269 272 275 277 279 281 283 284 286 287 289 290 291 292 293 294 295 296 297 298 298 298 299 299 299 299 299 299 298 298 298 298 298 298 299 299 299 300 301 302 302 302 301
246 246 247 247 247 247 246 246 245 243 242 241 239 238 237 238 239 241 243 246 249 253 256 261 265 268 272 275 277 279 281 283 285 286 288 289 290 291 292 293 294 295 296 297 297 298 298 298 299 299 300 300 300 299 299 298 298 299 299 299 299 298 298 298 299 300 301 301 301
244 245 246 246 247 247 247 246 244 242 241 240 239 239 239 239 241 242 245 248 252 256 260 264 268 271 274 277 279 282 284 285 287 288 289 291 291 292 293 294 295 295 296 296 297 297 298 298 299 299 299 299 299 299 298 298 298 298 298 297 296 296 295 295 296 297 297 298 298
243 244 245 245 246 246 245 244 242 241 240 239 239 239 240 241 242 244 247 251 255 259 263 267 271 274 277 279 282 284 286 288 289 290 291 292 293 293 293 294 294 295 295 296 296 297 298 298 299 299 299 298 298 297 297 297 297 296 296 295 293 293 292 292 293 293 294 294 294
242 242 243 243 243 244 243 242 241 240 240 239 239 239 240 242 244 247 250 254 258 263 267 270 274 276 279 282 285 287 289 290 291 292 293 293 293 293 294 294 294 295 295 296 296 297 298 299 300 300 299 298 297 296 295 295 295 294 294 293 292 291 291 290 290 290 290 289 289
240 240 240 240 241 241 240 240 239 239 239 239 239 240 241 243 246 249 253 258 262 266 270 273 277 280 283 286 288 289 291 292 292 293 293 293 294 294 294 294 294 295 295 296 297 298 299 300 300 300 299 298 297 295 294 294 293 293 292 291 291 291 291 290 290 289 289 288 287
237 237 237 237 237 237 237 238 238 238 238 239 239 241 242 245 248 252 257 261 265 270 273 277 281 284 286 289 290 291 292 293 293 293 293 293 294 294 294 294 295 296 296 297 298 299 300 300 300 300 299 298 297 295 294 293 292 292 291 291 291 291 291 291 290 290 290 289 288
233 232 232 232 233 234 234 236 237 238 239 239 240 241 244 247 252 256 261 265 269 274 277 281 284 287 289 291 292 292 293 293 293 293 293 293 294 294 294 295 296 297 298 299 299 300 301 301 301 300 300 298 297 295 294 293 292 291 291 290 290 290 290 290 290 290 291 290 289
227 226 226 227 228 230 232 234 236 237 238 239 240 243 246 251 256 261 266 270 274 278 282 285 287 289 291 292 292 293 293 293 293 293 293 294 294 295 295 296 297 298 299 300 300 301 301 302 302 301 300 299 297 295 293 292 292 291 290 290 290 290 290 290 290 291 291 291 290
220 219 219 222 224 228 230 232 234 235 236 239 242 246 251 256 262 267 272 276 279 283 285 287 289 291 291 292 292 292 292 292 293 293 294 294 295 295 296 297 298 299 300 300 301 302 302 302 302 301 300 298 296 294 293 292 291 290 289 289 289 289 290 290 291 291 291 291 291
211 211 214 217 221 224 226 228 230 233 236 241 246 252 258 263 268 273 277 280 283 286 288 289 291 291 292 292 292 292 292 292 293 293 294 295 295 296 297 298 299 299 300 301 301 301 302 302 301 301 299 297 295 293 292 291 290 289 288 288 288 289 290 291 291 292 292 292 292
198 200 204 208 211 215 218 222 228 234 240 247 254 260 265 270 274 278 281 284 287 289 290 291 292 292 292 292 292 292 293 294 294 295 296 296 297 297 298 298 299 300 300 300 300 301 301 301 300 300 298 296 294 292 291 290 289 288 288 288 288 290 291 292 292 292 292 292 292
176 180 185 190 196 204 212 222 232 242 249 256 262 267 271 275 279 282 285 287 289 291 292 292 292 292 293 293 294 295 295 296 297 297 297 298 298 298 298 299 299 299 299 299 299 300 300 300 299 298 297 295 293 291 290 288 287 287 287 287 289 290 291 292 292 292 292 292 292
153 160 168 178 190 204 219 233 244 252 258 264 269 274 278 281 284 287 289 291 291 292 292 292 292 293 294 295 296 296 297 298 298 298 298 299 299 299 299 298 299 299 299 299 299 299 299 299 298 297 295 293 291 289 288 287 287 286 287 287 289 291 292 292 292 293 292 292 291
144 153 165 183 203 221 236 247 255 262 267 272 277 281 285 287 289 291 292 293 293 293 293 293 294 295 296 297 297 298 298 298 298 299 299 299 299 299 299 299 299 299 300 300 300 300 299 299 298 296 294 292 290 289 287 286 286 286 286 288 289 291 293 293 293 292 292 292 291
144 159 182 208 229 243 253 260 266 272 276 281 285 287 290 292 293 294 294 294 294 294 295 296 297 298 298 298 299 299 298 298 298 298 299 299 299 299 299 299 300 300 300 300 300 300 300 299 298 296 294 292 290 288 286 285 285 285 287 288 290 291 292 293 293 292 291 291 290
Height
1524 1524 1524 1524 1525 1527 1528 1528 1529 1529 1529 1530 1531 1532 1532 1533 1534 1535 1536 1537 1538 1539 1540 1541 1542 1543 1544 1544 1545 1546 1546 1546 1547 1547 1547 1547 1547 1547 1547 1547 1547 1546 1546 1546 1546 1545 1545 1545 1544 1544 1544 1544 1543 1543 1542 1541 1541 1540 1539 1539 1538 1537 1536 1535 1534 1534 1533 1532 1531
1522 1522 1522 1523 1524 1525 1526 1527 1527 1527 1528 1529 1530 1530 1531 1532 1533 1534 1534 1535 1536 1537 1539 1539 1540 1541 1542 1543 1544 1544 1544 1545 1545 1545 1546 1546 1546 1546 1546 1545 1545 1545 1545 1544 1544 1544 1544 1543 1543 1543 1542 1542 1542 1541 1540 1539 1539 1538 1538 1537 1536 1535 1534 1534 1533 1532 1531 1530 1529
1521 1521 1521 1522 1522 1524 1524 1525 1525 1526 1527 1528 1529 1529 1530 1531 1532 1533 1533 1534 1535 1536 1537 1538 1539 1540 1541 1542 1542 1543 1543 1544 1544 1544 1544 1544 1544 1544 1544 1544 1544 1544 1544 1543 1543 1543 1542 1542 1542 1541 1541 1541 1540 1539 1539 1538 1537 1537 1536 1535 1534 1534 1533 1532 1531 1530 1529 1529 1528
1519 1519 1519 1520 1521 1522 1523 1523 1524 1525 1526 1527 1528 1529 1529 1530 1531 1531 1532 1533 1534 1535 1535 1536 1538 1539 1539 1540 1541 1541 1542 1542 1543 1543 1543 1543 1543 1543 1543 1543 1542 1542 1542 1542 1541 1541 1541 1540 1540 1540 1539 1539 1539 1538 1537 1537 1536 1535 1534 1534 1533 1532 1531 1530 1529 1529 1528 1527 1526
1518 1518 1518 1519 1519 1521 1522 1522 1523 1524 1525 1526 1527 1527 1528 1529 1529 1530 1531 1532 1532 1533 1534 1535 1536 1537 1538 1539 1539 1540 1540 1541 1541 1541 1541 1541 1541 1541 1541 1541 1541 1541 1540 1540 1540 1540 1539 1539 1539 1538 1538 1538 1537 1537 1536 1535 1535 1534 1533 1532 1531 1530 1529 1529 1528 1527 1526 1525 1525
1516 1517 1517 1518 1519 1519 1520 1522 1523 1523 1524 1524 1525 1526 1527 1528 1528 1529 1529 1530 1531 1532 1533 1534 1535 1536 1537 1537 1538 1539 1539 1539 1539 1540 1540 1540 1540 1540 1540 1539 1539 1539 1539 1539 1539 1538 1538 1538 1537 1537 1536 1536 1535 1535 1534 1534 1533 1532 1531 1530 1529 1529 1528 1527 1526 1525 1524 1524 1523
1515 1515 1516 1516 1517 1519 1519 1521 1522 1522 1523 1523 1524 1525 1525 1526 1527 1528 1528 1529 1530 1531 1532 1533 1533 1534 1535 1536 1537 1537 1538 1538 1538 1538 1539 1538 1538 1538 1538 1538 1538 1538 1537 1537 1537 1537 1537 1536 1536 1535 1535 1534 1534 1533 1533 1532 1531 1530 1530 1529 1528 1527 1526 1525 1524 1523 1523 1522 1521
1514 1514 1515 1516 1516 1518 1519 1520 1520 1521 1521 1522 1523 1524 1524 1525 1526 1527 1527 1528 1529 1529 1530 1531 1532 1533 1534 1534 1535 1536 1536 1536 1537 1537 1537 1537 1537 1537 1537 1536 1536 1536 1536 1535 1535 1535 1535 1534 1534 1534 1533 1533 1532 1531 1531 1530 1529 1529 1528 1527 1526 1525 1524 1523 1522 1521 1521 1520 1519
1513 1514 1514 1515 1516 1517 1518 1519 1519 1519 1520 1520 1521 1522 1523 1524 1524 1525 1526 1527 1527 1528 1529 1530 1531 1532 1533 1533 1534 1534 1535 1535 1535 1535 1535 1535 1535 1535 1535 1535 1534 1534 1534 1534 1534 1534 1533 1533 1533 1532 1532 1531 1530 1529 1529 1528 1527 1527 1526 1525 1524 1524 1523 1522 1520 1519 1519 1518 1517
1511 1512 1513 1514 1514 1515 1516 1517 1518 1518 1518 1519 1520 1521 1522 1522 1523 1524 1524 1525 1526 1527 1528 1529 1530 1531 1531 1532 1532 1533 1533 1534 1534 1534 1534 1534 1534 1533 1533 1533 1533 1533 1533 1532 1532 1532 1532 1531 1531 1530 1530 1529 1528 1528 1527 1526 1525 1525 1524 1523 1523 1522 1521 1520 1519 1518 1517 1516 1515
1510 1511 1511 1512 1513 1514 1515 1516 1516 1516 1517 1518 1519 1520 1520 1521 1522 1523 1523 1524 1525 1526 1527 1528 1529 1529 1530 1530 1531 1531 1532 1532 1532 1532 1532 1532 1532 1532 1531 1531 1531 1531 1531 1530 1530 1530 1530 1529 1529 1528 1528 1527 1526 1525 1525 1524 1524 1523 1522 1521 1521 1520 1519 1518 1517 1516 1515 1514 1514
1508 1509 1510 1511 1512 1513 1513 1514 1514 1515 1516 1517 1518 1518 1519 1519 1520 1521 1522 1523 1524 1525 1526 1526 1527 1528 1528 1529 1529 1530 1530 1530 1530 1530 1530 1530 1530 1530 1530 1530 1529 1529 1529 1529 1529 1528 1528 1528 1527 1527 1526 1525 1524 1524 1523 1522 1521 1521 1520 1519 1519 1518 1517 1516 1515 1514 1514 1513 1512
1507 1507 1508 1509 1510 1511 1512 1512 1513 1514 1514 1515 1516 1517 1517 1518 1519 1520 1520 1521 1522 1523 1524 1525 1526 1526 1527 1527 1528 1528 1528 1529 1529 1529 1529 1529 1529 1528 1528 1528 1528 1528 1527 1527 1527 1526 1526 1526 1525 1524 1524 1523 1523 1522 1521 1520 1519 1519 1518 1517 1516 1516 1515 1514 1513 1512 1512 1511 1510
1505 1506 1507 1508 1508 1509 1510 1511 1511 1512 1513 1514 1515 1515 1516 1517 1518 1518 1519 1520 1521 1522 1523 1524 1524 1525 1525 1526 1526 1527 1527 1527 1527 1527 1527 1527 1527 1527 1526 1526 1526 1526 1526 1525 1525 1524 1524 1524 1523 1523 1522 1521 1521 1520 1519 1518 1517 1516 1516 1515 1514 1514 1513 1512 1511 1510 1509 1509 1508
1504 1504 1505 1506 1507 1507 1508 1509 1510 1511 1512 1513 1513 1514 1514 1515 1516 1517 1518 1519 1519 1520 1521 1522 1523 1523 1524 1524 1525 1525 1525 1525 1525 1525 1525 1525 1525 1525 1525 1524 1524 1524 1524 1524 1523 1523 1522 1522 1521 1520 1520 1519 1519 1518 1517 1516 1515 1514 1514 1513 1512 1512 1511 1510 1509 1508 1508 1507 1506
1502 1502 1503 1504 1505 1506 1507 1508 1509 1509 1510 1511 1512 1512 1513 1514 1514 1515 1516 1517 1518 1519 1520 1521 1521 1522 1522 1523 1523 1523 1524 1524 1524 1524 1524 1524 1523 1523 1523 1523 1523 1523 1522 1522 1522 1521 1520 1519 1519 1518 1518 1517 1517 1516 1515 1514 1514 1513 1512 1511 1510 1509 1509 1508 1507 1506 1505 1504 1504
1500 1500 1501 1502 1503 1504 1505 1506 1507 1508 1509 1509 1510 1511 1511 1512 1513 1514 1515 1516 1517 1518 1518 1519 1520 1520 1521 1521 1522 1522 1522 1522 1522 1522 1522 1522 1522 1521 1521 1521 1521 1521 1520 1520 1520 1519 1519 1518 1517 1516 1515 1515 1514 1514 1513 1513 1512 1511 1509 1509 1508 1507 1506 1506 1505 1504 1504 1502 1502
1499 1499 1499 1500 1502 1503 1504 1505 1506 1506 1507 1508 1509 1509 1510 1510 1511 1513 1514 1515 1515 1516 1517 1518 1519 1519 1519 1520 1520 1520 1520 1520 1520 1520 1520 1520 1520 1520 1520 1519 1519 1519 1519 1518 1518 1517 1517 1516 1515 1514 1513 1512 1512 1511 1511 1510 1509 1508 1507 1506 1506 1505 1504 1504 1503 1502 1501 1500 1499
1497 1497 1498 1499 1500 1501 1503 1504 1504 1505 1506 1507 1507 1508 1509 1509 1511 1512 1513 1514 1514 1515 1516 1517 1517 1518 1518 1519 1519 1519 1519 1519 1519 1519 1519 1519 1519 1518 1518 1518 1518 1517 1517 1516 1516 1515 1515 1514 1513 1512 1511 1510 1509 1508 1508 1507 1506 1506 1505 1504 1503 1503 1502 1501 1501 1500 1499 1498 1498
1495 1496 1497 1498 1499 1500 1501 1502 1503 1504 1504 1505 1506 1506 1507 1509 1510 1511 1512 1513 1513 1514 1515 1515 1516 1516 1517 1517 1517 1517 1517 1517 1517 1517 1517 1517 1517 1517 1516 1516 1516 1515 1515 1514 1514 1514 1513 1512 1511 1510 1509 1508 1507 1506 1505 1504 1504 1503 1502 1501 1501 1500 1499 1499 1498 1498 1497 1496 1495
1494 1495 1495 1497 1498 1499 1500 1501 1502 1503 1503 1504 1504 1505 1506 1508 1509 1510 1511 1511 1512 1513 1514 1514 1514 1515 1515 1515 1515 1515 1515 1516 1516 1515 1515 1515 1515 1515 1515 1514 1514 1514 1513 1512 1512 1511 1511 1510 1509 1508 1507 1506 1505 1504 1503 1502 1501 1500 1499 1499 1498 1497 1497 1496 1496 1495 1494 1494 1493
1493 1494 1494 1496 1497 1498 1499 1500 1501 1501 1502 1503 1503 1504 1505 1507 1508 1509 1509 1510 1511 1512 1512 1513 1513 1514 1514 1514 1514 1514 1514 1514 1514 1514 1514 1514 1513 1513 1513 1513 1512 1512 1511 1510 1510 1509 1509 1508 1507 1506 1505 1504 1503 1502 1501 1499 1499 1497 1496 1496 1495 1494 1494 1494 1493 1493 1492 1491 1490
1492 1493 1494 1495 1496 1497 1498 1499 1499 1500 1501 1501 1502 1503 1504 1506 1507 1508 1508 1509 1510 1511 1511 1512 1512 1512 1512 1512 1513 1513 1512 1512 1512 1512 1512 1512 1512 1511 1511 1510 1510 1509 1509 1509 1508 1507 1507 1506 1505 1504 1503 1502 1500 1499 1498 1497 1496 1495 1494 1493 1492 1492 1491 1491 1491 1490 1489 1489 1488
1491 1492 1493 1494 1495 1496 1497 1498 1498 1499 1499 1500 1501 1502 1504 1504 1505 1506 1507 1508 1509 1509 1510 1510 1510 1511 1511 1511 1511 1511 1511 1511 1510 1510 1510 1510 1510 1509 1509 1508 1508 1507 1507 1506 1506 1505 1504 1504 1503 1502 1501 1499 1498 1497 1496 1494 1493 1492 1491 1490 1489 1489 1489 1488 1488 1488 1487 1486 1486
1490 1491 1492 1493 1494 1495 1496 1496 1497 1498 1499 1499 1500 1501 1503 1504 1504 1505 1506 1507 1508 1509 1509 1509 1509 1509 1509 1509 1509 1509 1509 1509 1509 1509 1509 1508 1508 1507 1507 1506 1506 1505 1505 1504 1504 1503 1502 1501 1500 1499 1498 1497 1496 1494 1493 1492 1490 1489 1488 1487 1486 1486 1485 1484 1484 1484 1484 1484 1483
1489 1490 1491 1492 1493 1494 1494 1495 1496 1497 1498 1499 1499 1501 1502 1503 1504 1504 1505 1506 1507 1507 1508 1508 1508 1508 1508 1508 1508 1508 1508 1507 1507 1507 1507 1506 1506 1505 1504 1504 1503 1503 1502 1502 1501 1501 1500 1499 1497 1496 1495 1494 1492 1491 1490 1489 1488 1487 1485 1484 1484 1483 1482 1481 1481 1480 1480 1480 1479
1488 1489 1490 1491 1492 1493 1494 1494 1495 1496 1497 1498 1499 1500 1501 1502 1503 1504 1504 1505 1505 1506 1506 1506 1506 1506 1506 1506 1506 1506 1506 1506 1505 1505 1505 1504 1504 1503 1503 1502 1501 1500 1500 1499 1499 1498 1497 1496 1495 1494 1492 1491 1489 1488 1487 1486 1485 1484 1483 1482 1481 1480 1479 1479 1478 1478 1478 1477 1477
1487 1488 1489 1490 1491 1492 1493 1494 1494 1495 1496 1497 1498 1499 1500 1501 1502 1503 1504 1504 1504 1505 1505 1505 1505 1505 1505 1505 1505 1504 1504 1504 1504 1503 1503 1502 1502 1501 1501 1500 1499 1498 1498 1497 1496 1496 1495 1494 1493 1492 1490 1489 1487 1485 1484 1483 1482 1481 1480 1479 1479 1478 1477 1477 1476 1476 1475 1475 1475
1486 1487 1488 1489 1490 1491 1492 1493 1494 1494 1495 1496 1497 1498 1499 1500 1501 1502 1502 1503 1503 1503 1504 1504 1504 1504 1504 1503 1503 1503 1503 1502 1502 1501 1501 1500 1500 1499 1499 1498 1497 1496 1495 1495 1494 1493 1492 1491 1491 1489 1489 1487 1485 1484 1482 1481 1480 1479 1478 1477 1477 1476 1475 1475 1474 1474 1473 1473 1472
1485 1486 1487 1488 1489 1490 1491 1492 1493 1494 1494 1495 1497 1498 1499 1499 1500 1501 1501 1502 1502 1502 1502 1502 1502 1502 1502 1502 1502 1501 1501 1500 1500 1499 1499 1498 1498 1497 1496 1495 1494 1494 1493 1492 1491 1491 1490 1489 1488 1487 1486 1485 1483 1482 1480 1479 1478 1477 1476 1475 1474 1474 1474 1473 1473 1472 1471 1471 1470
1484 1485 1486 1487 1488 1489 1490 1491 1492 1493 1494 1495 1496 1497 1498 1499 1499 1500 1500 1501 1501 1501 1501 1501 1501 1501 1500 1500 1500 1499 1499 1498 1498 1497 1497 1496 1495 1494 1494 1493 1492 1491 1490 1489 1489 1488 1487 1487 1486 1485 1484 1483 1481 1479 1478 1476 1475 1474 1474 1473 1472 1472 1471 1471 1470 1470 1469 1469 1468
1483 1484 1485 1486 1487 1488 1489 1490 1491 1492 1493 1494 1495 1496 1497 1498 1499 1499 1499 1500 1500 1500 1500 1499 1499 1499 1499 1499 1498 1498 1497 1496 1496 1495 1494 1493 1492 1491 1491 1490 1489 1488 1487 1487 1486 1485 1485 1484 1483 1482 1481 1480 1479 1477 1475 1474 1473 1472 1471 1470 1469 1469 1469 1468 1468 1467 1467 1466 1466
1482 1483 1484 1485 1486 1488 1489 1490 1491 1492 1493 1494 1495 1496 1497 1497 1498 1498 1498 1499 1499 1499 1498 1498 1498 1498 1497 1497 1496 1496 1495 1494 1494 1493 1492 1491 1490 1489 1488 1487 1486 1485 1484 1484 1483 1483 1482 1481 1480 1479 1479 1478 1476 1474 1473 1472 1471 1469 1469 1468 1467 1467 1466 1466 1465 1465 1464 1464 1463
1481 1483 1484 1485 1486 1487 1488 1489 1490 1492 1493 1494 1494 1495 1496 1496 1497 1497 1497 1497 1497 1497 1497 1497 1496 1496 1495 1495 1494 1494 1493 1492 1491 1490 1489 1488 1487 1486 1485 1484 1483 1482 1482 1481 1480 1480 1479 1479 1478 1477 1476 1475 1474 1472 1470 1469 1468 1467 1466 1465 1464 1464 1464 1463 1463 1462 1462 1461 1460
1481 1482 1484 1484 1486 1487 1488 1489 1490 1491 1492 1493 1494 1495 1495 1496 1496 1496 1496 1496 1496 1496 1495 1495 1495 1494 1494 1493 1493 1492 1491 1490 1489 1488 1487 1486 1484 1483 1482 1481 1480 1479 1479 1479 1478 1477 1476 1476 1475 1474 1474 1472 1471 1469 1468 1467 1465 1464 1464 1463 1462 1461 1461 1460 1460 1459 1459 1458 1458
1482 1483 1484 1485 1486 1487 1488 1489 1490 1491 1492 1493 1494 1494 1494 1495 1495 1495 1495 1495 1494 1494 1494 1494 1493 1493 1492 1491 1490 1489 1489 1488 1487 1485 1484 1484 1482 1481 1479 1479 1478 1477 1476 1476 1475 1474 1474 1473 1473 1472 1471 1470 1468 1467 1465 1464 1463 1462 1461 1460 1459 1459 1459 1458 1457 1457 1456 1455 1455
1482 1483 1484 1485 1486 1488 1489 1489 1490 1491 1492 1493 1493 1494 1494 1494 1494 1494 1494 1493 1493 1493 1492 1492 1491 1490 1489 1489 1488 1487 1486 1485 1484 1483 1482 1481 1480 1478 1477 1476 1475 1474 1474 1474 1473 1472 1471 1471 1470 1469 1469 1467 1466 1464 1463 1462 1460 1459 1459 1458 1457 1456 1456 1455 1455 1454 1453 1453 1452
1483 1484 1485 1486 1487 1488 1489 1489 1490 1491 1492 1492 1492 1493 1493 1493 1493 1492 1492 1492 1492 1491 1490 1490 1489 1488 1487 1486 1485 1484 1483 1482 1481 1480 1479 1478 1477 1476 1475 1473 1472 1472 1472 1471 1470 1470 1469 1469 1468 1467 1466 1465 1463 1462 1460 1459 1458 1457 1456 1455 1454 1454 1453 1453 1452 1451 1450 1450 1449
1484 1484 1485 1486 1487 1488 1489 1489 1490 1491 1491 1491 1492 1492 1492 1491 1491 1491 1491 1490 1490 1489 1488 1488 1487 1486 1484 1484 1482 1481 1480 1479 1479 1477 1476 1475 1474 1473 1472 1471 1470 1469 1469 1469 1468 1467 1467 1466 1465 1465 1464 1463 1461 1459 1458 1457 1456 1454 1454 1453 1452 1451 1451 1450 1449 1449 1448 1447 1447
1484 1485 1486 1487 1488 1488 1489 1489 1490 1490 1490 1491 1491 1491 1490 1490 1490 1489 1489 1489 1488 1487 1486 1485 1484 1484 1482 1481 1480 1479 1478 1477 1476 1475 1474 1473 1472 1471 1470 1468 1467 1466 1466 1465 1465 1464 1464 1464 1463 1462 1461 1460 1459 1457 1456 1454 1453 1452 1451 1450 1450 1449 1448 1447 1447 1446 1445 1444 1444
1485 1486 1486 1487 1488 1488 1489 1489 1489 1489 1490 1490 1490 1490 1489 1489 1489 1488 1487 1486 1486 1485 1484 1483 1482 1481 1480 1479 1478 1476 1475 1474 1473 1473 1472 1470 1469 1468 1467 1466 1464 1463 1463 1462 1462 1461 1461 1461 1460 1460 1459 1458 1456 1455 1454 1452 1451 1450 1449 1448 1448 1447 1446 1445 1444 1444 1443 1442 1441